Flag for Germany Weather past 2 weeks in Schwäbisch Hall, Baden-Württemberg, Germany

Now
68 °F

Sunny.


Feels Like: 68 °F
Forecast: 47 / 73 °F
Wind: 1 mph from East

Location: Oehringen


UV Index: 3 (Moderate)

Visibility: 25 mi


Pressure: 29.93 "Hg

Humidity: 44%

Dew point: 46 °F

Location of Schwäbisch HallLocation

Historic Weather in Schwäbisch Hall

°F

Schwäbisch Hall temperature yesterday

Maximum temperature yesterday: 71 °F (at 5:00 PM)
Minimum temperature yesterday: 44 °F (at 5:00 AM)
Average temperature yesterday: 58 °F

Past Weeks' High & Low Weather Summary

 TemperatureHumidityPressure
High76 °F (Apr 24, 5:00 PM)98% (Apr 19, 4:00 AM)30.42 "Hg (Apr 19, 4:00 AM)
Low32 °F (Apr 16, 7:00 AM)24% (Apr 17, 4:00 PM)29.61 "Hg (Apr 21, 2:00 PM)
Average52 °F65%30.02 "Hg
* Reported Apr 9 8:00 PM — Apr 24 8:00 PM, Schwäbisch Hall, Weather by CustomWeather, © 2014

Note: Actual official high and low records may vary slightly from our data, if they occured in-between our weather recording intervals... More about our weather records

Advertising

Historic Weather Conditions — Data for Previous 24 hours

 ConditionsComfort  
Time TempWeatherWind HumidityBarometerVisibility
8:00 PM
Apr 24
68 °FSunny.1 mph44%29.93 "Hg25 mi
7:00 PM72 °FPassing clouds.2 mph37%29.93 "Hg22 mi
6:00 PM73 °FPassing clouds.2 mph31%29.93 "Hg28 mi
5:00 PM76 °FPassing clouds.2 mph31%29.94 "Hg18 mi
4:00 PM74 °FPassing clouds.2 mph28%29.96 "Hg34 mi
3:00 PM74 °FPassing clouds.2 mph33%29.99 "Hg28 mi
2:00 PM73 °FSunny.2 mph33%30.01 "Hg25 mi
1:00 PM73 °FPassing clouds.2 mph38%30.02 "Hg19 mi
12:00 PM69 °FSunny.1 mph51%30.06 "Hg10 mi
11:00 AM65 °FScattered clouds.1 mph55%30.08 "Hg9 mi
10:00 AM61 °FSunny.1 mph67%30.09 "Hg7 mi
9:00 AM54 °FSunny.1 mph69%30.11 "Hg10 mi
8:00 AM49 °FSunny.No wind80%30.11 "Hg7 mi
7:00 AM46 °FSunny.1 mph89%30.11 "Hg8 mi
6:00 AM46 °FClear.1 mph87%30.10 "Hg8 mi
5:00 AM48 °FClear.1 mph86%30.10 "Hg9 mi
4:00 AM48 °FClear.1 mph87%30.11 "Hg8 mi
3:00 AM50 °FClear.1 mph81%30.10 "Hg11 mi
2:00 AM50 °FPassing clouds.1 mph85%30.11 "Hg11 mi
1:00 AM51 °FPassing clouds.1 mph83%30.11 "Hg13 mi
12:00 AM52 °FPassing clouds.1 mph80%30.10 "Hg16 mi
11:00 PM
Apr 23
54 °FClear.1 mph77%30.10 "Hg19 mi
10:00 PM57 °FClear.1 mph69%30.09 "Hg19 mi
9:00 PM63 °FClear.No wind55%30.06 "Hg28 mi
Weather by CustomWeather, © 2014

See weather overview